Regional Weather Roundup
Issued by NWS Northern Indiana

Home | Current Version | Previous Version | Text Only | Print | Product List | Glossary Off
Versions: 1 2 3 4 5 6 7 8 9 10 11 12 13 14 15 16 17 18 19 20 21 22 23 24 25 26 27 28 29 30 31 32 33 34 35 36 37 38 39 40 41 42 43 44 45 46 47 48 49 50

000
ASUS43 KIWX 242310
RWRIWX

KIWX WEATHER ROUNDUP
NATIONAL WEATHER SERVICE NORTHERN INDIANA
700 PM EDT THU JUL 24 2014

NOTE: "FAIR" INDICATES FEW OR NO CLOUDS BELOW 12,000 FEET WITH NO
SIGNIFICANT WEATHER AND/OR OBSTRUCTIONS TO VISIBILITY.

* THESE STATIONS ARE NOT UNDER NWS QUALITY CONTROL. THEY ALSO MAY NOT
  REPORT WEATHER SUCH AS PRECIPITATION OR FOG.

INZ001>027-250000-
NORTHERN INDIANA

CITY           SKY/WX    TMP DP  RH WIND       PRES   REMARKS
GARY*          MOSUNNY   70  52  52 NE7       30.10S
VALPARAISO     SUNNY     71  53  52 N7        30.10R
MICHIGAN CITY* SUNNY     66  50  55 N6        30.10S
LAPORTE*       SUNNY     69  52  54 NW9       30.11R
KNOX*          SUNNY     72  55  54 NW8       30.08R
SOUTH BEND     SUNNY     72  52  49 NW13      30.09R
GOSHEN         MOSUNNY   72  52  49 NE5       30.06F
MONTICELLO*    SUNNY     71  56  60 CALM      30.06R
LOGANSPORT*    SUNNY     68  55  64 CALM      30.07S
ROCHESTER*     PTSUNNY   77  50  38 NE6       30.07S
WARSAW*        SUNNY     72  52  49 NE3       30.06F
ANGOLA*        SUNNY     72  48  43 N3        30.07S
FORT WAYNE     PTSUNNY   73  51  46 SE7       30.06S
HUNTINGTON*    CLOUDY    73  53  49 SE3       30.05S
PERU/GRISSOM   PTSUNNY   74  55  50 N7        30.06F
MARION*        MOSUNNY   71  52  51 CALM      30.05F

$$
INZ028>050-250000-
CENTRAL INDIANA

CITY           SKY/WX    TMP DP  RH WIND       PRES   REMARKS
LAFAYETTE      MOSUNNY   75  52  44 N3        30.06S
KOKOMO*        SUNNY     75  52  43 NE5       30.05F
MUNCIE*        MOSUNNY   73  50  44 E6        30.05F
INDIANAPOLIS   MOSUNNY   75  50  41 N9        30.04S

$$
MIZ043>046-050>051-056>058-064>065-071>073-077>080-250000-
SOUTHWEST LOWER MICHIGAN

CITY           SKY/WX    TMP DP  RH WIND       PRES   REMARKS
BATTLE CREEK   SUNNY     73  50  44 N5        30.08R
BENTON HARBOR  SUNNY     66  51  58 VRB7      30.11R
COLDWATER*     PTSUNNY   73  50  45 NW6       30.07S
HILLSDALE*     SUNNY     71  49  45 CALM      30.07R
HOLLAND        SUNNY     69  48  47 NW10      30.10R
GRAND RAPIDS   MOSUNNY   74  49  41 CALM      30.07S
KALAMAZOO      MOSUNNY   73  49  42 CALM      30.07S
STURGIS*       SUNNY     68  55  64 CALM      30.07S
THREE RIVERS*  FAIR      73  53  50 N5        30.07S

$$
OHZ001>008-015>018-024>025-250000-
NORTHWEST OHIO

CITY           SKY/WX    TMP DP  RH WIND       PRES   REMARKS
WAUSEON*       CLOUDY    75  50  41 E5        30.05S
DEFIANCE       PTSUNNY   74  50  42 E5        30.04F
FINDLAY        SUNNY     72  50  45 E10       30.04F
TOLEDO EXPRESS MOSUNNY   73  49  42 VRB3      30.04F
TOLEDO METCALF SUNNY     72  49  44 E5        30.05F
LIMA           SUNNY     72  51  47 NE8       30.05F

$$
&&



USA.gov is the U.S. government's official web portal to all federal, state and local government web resources and services.